Menomonie, WI

11:03 AM CST on December 10, 2016 (GMT -0600)
Menomonie

Weather History for KLUM - September, 2013

Change the Weather History Date:

Tuesday, September 24, 2013

  Actual Average (KEAU) Record (KEAU)
Temperature  
Mean Temperature 60 °F -  
Max Temperature 75 °F 66 °F 90 °F (1935)
Min Temperature 45 °F 41 °F 27 °F (1976)
Degree Days  
Heating Degree Days 5    
Growing Degree Days 10 (Base 50)    
Moisture  
Dew Point 47 °F    
Average Humidity 71    
Maximum Humidity 96    
Minimum Humidity 31    
Precipitation  
Precipitation 0.00 in - - ()
Sea Level Pressure  
Sea Level Pressure 29.98 in    
Wind  
Wind Speed 4 mph (East)    
Max Wind Speed 12 mph    
Max Gust Speed 17 mph    
Visibility 9 miles    
Events      
Averages and records for this station are not official NWS values.
T = Trace of Precipitation, MM = Missing Value Source: NWS Daily Summary

Daily Weather History Graph

Daily Weather History Graph

Search for Another Location

Airport or City:

Trip Planner

Search our weather history database for the weather conditions in past years. The results will help you decide how hot, cold, wet, or windy it might be!

Date:

Astronomy

Sep. 24, 2013 Rise Set
Actual Time 6:57 AM CDT 7:00 PM CDT
Civil Twilight 6:28 AM CDT 7:29 PM CDT
Nautical Twilight 5:53 AM CDT 8:03 PM CDT
Astronomical Twilight 5:18 AM CDT 8:38 PM CDT
Moon 10:05 PM CDT (9/24) 12:25 PM CDT (9/24)
Length of Visible Light 13h 01m
Length of Day
12h 03m
Waning Gibbous, 73% of the Moon is Illuminated
Sep 24
Waning Gibbous
Sep 26
Last Quarter
Oct 4
New
Oct 11
First Quarter
Oct 18
Full

Hourly Weather History & Observations

Time (CDT) Temp. Windchill Dew Point Humidity Pressure Visibility Wind Dir Wind Speed Gust Speed Precip Events Conditions
12:15 AM 52.9 °F - 48.4 °F 85% 30.00 in 10.0 mi SE 3.5 mph - N/A   Clear
12:35 AM 52.5 °F - 48.4 °F 86% 30.00 in 10.0 mi ESE 4.6 mph - N/A   Clear
12:55 AM 51.3 °F - 48.0 °F 89% 30.00 in 10.0 mi ESE 5.8 mph - N/A   Clear
1:15 AM 51.3 °F - 48.2 °F 89% 30.00 in 10.0 mi ESE 3.5 mph - N/A   Clear
1:35 AM 51.3 °F - 48.2 °F 89% 29.99 in 10.0 mi East 3.5 mph - N/A   Clear
1:55 AM 49.8 °F - 46.9 °F 90% 29.99 in 10.0 mi East 4.6 mph - N/A   Clear
2:15 AM 49.5 °F - 46.6 °F 90% 29.99 in 10.0 mi East 4.6 mph - N/A   Clear
2:35 AM 49.1 °F - 46.6 °F 91% 30.00 in 10.0 mi ESE 4.6 mph - N/A   Clear
2:55 AM 49.5 °F - 47.1 °F 92% 30.00 in 10.0 mi East 4.6 mph - N/A   Clear
3:15 AM 49.1 °F - 46.8 °F 92% 30.00 in 10.0 mi East 3.5 mph - N/A   Clear
3:35 AM 48.6 °F - 46.6 °F 93% 30.00 in 10.0 mi East 3.5 mph - N/A   Clear
3:55 AM 47.3 °F - 45.5 °F 93% 30.00 in 7.0 mi East 4.6 mph - N/A   Clear
4:15 AM 47.3 °F - 45.9 °F 95% 30.00 in 7.0 mi East 4.6 mph - N/A   Clear
4:35 AM 47.8 °F - 46.6 °F 95% 30.00 in 7.0 mi East 6.9 mph - N/A   Clear
4:55 AM 47.7 °F - 46.4 °F 95% 30.00 in 10.0 mi East 4.6 mph - N/A   Clear
5:15 AM 46.8 °F - 45.5 °F 95% 30.00 in 7.0 mi East 5.8 mph - N/A   Clear
5:35 AM 46.9 °F - 45.7 °F 95% 30.00 in 7.0 mi East 4.6 mph - N/A   Clear
5:55 AM 47.5 °F - 46.2 °F 95% 30.00 in 7.0 mi East 4.6 mph - N/A   Clear
6:15 AM 46.9 °F - 45.5 °F 95% 30.01 in 7.0 mi East 4.6 mph - N/A   Clear
6:35 AM 45.9 °F 44.6 °F 44.4 °F 95% 30.01 in 5.0 mi East 3.5 mph - N/A   Clear
6:55 AM 45.5 °F 43.2 °F 44.2 °F 95% 30.01 in 5.0 mi ENE 4.6 mph - N/A   Clear
7:15 AM 45.7 °F - 44.6 °F 96% 30.01 in 7.0 mi Calm Calm - N/A   Clear
7:35 AM 45.9 °F 44.6 °F 44.8 °F 96% 30.01 in 4.0 mi East 3.5 mph - N/A   Clear
7:55 AM 47.3 °F - 46.2 °F 96% 30.01 in 4.0 mi ENE 5.8 mph - N/A   Clear
8:15 AM 49.1 °F - 47.7 °F 95% 30.01 in 5.0 mi Calm Calm - N/A   Clear
8:35 AM 50.9 °F - 48.2 °F 90% 30.01 in 7.0 mi East 5.8 mph - N/A   Clear
8:55 AM 52.5 °F - 48.4 °F 86% 30.02 in 10.0 mi East 6.9 mph - N/A   Clear
9:15 AM 53.8 °F - 48.9 °F 84% 30.02 in 10.0 mi East 4.6 mph - N/A   Clear
9:35 AM 54.9 °F - 48.9 °F 80% 30.03 in 10.0 mi East 5.8 mph - N/A   Clear
9:55 AM 56.3 °F - 49.3 °F 77% 30.03 in 10.0 mi East 5.8 mph - N/A   Clear
10:15 AM 58.5 °F - 50.2 °F 74% 30.03 in 10.0 mi East 5.8 mph - N/A   Clear
10:35 AM 59.9 °F - 49.8 °F 69% 30.03 in 10.0 mi East 5.8 mph - N/A   Clear
10:55 AM 62.2 °F - 49.3 °F 63% 30.02 in 10.0 mi East 5.8 mph - N/A   Clear
11:15 AM 63.3 °F - 49.8 °F 61% 30.02 in 10.0 mi ESE 4.6 mph - N/A   Clear
11:35 AM 64.9 °F - 50.0 °F 58% 30.02 in 10.0 mi SE 4.6 mph - N/A   Clear
11:55 AM 66.7 °F - 50.7 °F 56% 30.01 in 10.0 mi ESE 4.6 mph - N/A   Clear
12:15 PM 68.4 °F - 50.5 °F 53% 30.00 in 10.0 mi East 4.6 mph - N/A   Clear
12:55 PM 70.0 °F - 49.3 °F 48% 29.99 in 10.0 mi East 5.8 mph - N/A   Clear
1:15 PM 71.2 °F - 48.6 °F 45% 29.98 in 10.0 mi ESE 5.8 mph - N/A   Clear
1:35 PM 72.5 °F - 48.6 °F 43% 29.98 in 7.0 mi East 6.9 mph - N/A   Clear
1:55 PM 73.6 °F - 45.1 °F 36% 29.98 in 10.0 mi SSE 10.4 mph - N/A   Clear
2:15 PM 73.6 °F - 46.4 °F 38% 29.97 in 10.0 mi East 8.1 mph - N/A   Clear
2:35 PM 74.5 °F - 45.9 °F 36% 29.96 in 10.0 mi ESE 9.2 mph - N/A   Clear
2:55 PM 74.3 °F - 44.2 °F 34% 29.96 in 10.0 mi ESE 8.1 mph - N/A   Clear
3:15 PM 74.5 °F - 45.1 °F 35% 29.95 in 10.0 mi East 8.1 mph - N/A   Clear
3:35 PM 75.2 °F - 44.8 °F 34% 29.95 in 10.0 mi SE 10.4 mph - N/A   Clear
3:55 PM 75.0 °F - 45.3 °F 35% 29.95 in 10.0 mi ESE 9.2 mph - N/A   Clear
4:15 PM 74.8 °F - 41.9 °F 31% 29.94 in 10.0 mi SE 11.5 mph 17.3 mph N/A   Clear
4:35 PM 74.7 °F - 44.4 °F 34% 29.94 in 10.0 mi ESE 8.1 mph - N/A   Clear
4:55 PM 74.8 °F - 44.6 °F 34% 29.94 in 10.0 mi SE 8.1 mph - N/A   Clear
5:15 PM 74.5 °F - 45.3 °F 35% 29.94 in 10.0 mi ESE 6.9 mph - N/A   Clear
5:35 PM 73.4 °F - 44.8 °F 36% 29.94 in 10.0 mi SE 10.4 mph - N/A   Clear
5:55 PM 72.5 °F - 45.3 °F 38% 29.94 in 10.0 mi ESE 8.1 mph - N/A   Clear
6:15 PM 71.4 °F - 46.8 °F 41% 29.94 in 10.0 mi SE 4.6 mph - N/A   Clear
6:35 PM 69.8 °F - 47.7 °F 45% 29.94 in 10.0 mi Calm Calm - N/A   Clear
6:55 PM 67.5 °F - 47.8 °F 49% 29.95 in 10.0 mi Calm Calm - N/A   Clear
7:15 PM 66.2 °F - 48.0 °F 52% 29.96 in 10.0 mi Calm Calm - N/A   Clear
7:35 PM 64.6 °F - 48.7 °F 56% 29.96 in 10.0 mi Calm Calm - N/A   Clear
7:55 PM 60.3 °F - 49.3 °F 67% 29.96 in 10.0 mi Calm Calm - N/A   Clear
8:15 PM 59.4 °F - 50.7 °F 73% 29.96 in 10.0 mi Calm Calm - N/A   Clear
8:35 PM 58.5 °F - 50.2 °F 74% 29.96 in 10.0 mi Calm Calm - N/A   Clear
8:55 PM 56.3 °F - 50.2 °F 80% 29.97 in 10.0 mi ENE 3.5 mph - N/A   Clear
9:15 PM 56.1 °F - 50.9 °F 83% 29.97 in 10.0 mi Calm Calm - N/A   Clear
9:35 PM 56.1 °F - 49.8 °F 79% 29.97 in 10.0 mi Calm Calm - N/A   Clear
9:55 PM 54.3 °F - 49.3 °F 83% 29.97 in 10.0 mi Calm Calm - N/A   Clear
10:15 PM 54.3 °F - 49.5 °F 84% 29.97 in 10.0 mi Calm Calm - N/A   Clear
10:35 PM 52.7 °F - 48.7 °F 86% 29.97 in 10.0 mi Calm Calm - N/A   Clear
10:55 PM 52.3 °F - 49.1 °F 89% 29.97 in 10.0 mi Calm Calm - N/A   Clear
11:15 PM 52.9 °F - 48.7 °F 86% 29.97 in 10.0 mi Calm Calm - N/A   Clear
11:35 PM 52.9 °F - 49.8 °F 89% 29.97 in 10.0 mi Calm Calm - N/A   Clear
11:55 PM 51.8 °F - 49.1 °F 90% 29.97 in 10.0 mi Calm Calm - N/A   Clear